COSMOS 2251 DEB, 35661

Orbit data source: Space-Track

COSMOS 2251 DEB, 35661 is space debris in LEO originally from a launch on Wed, 16 Jun 1993 UTC launched from the Plesetsk Missile And Space Complex (PKMTR). The debris from Iridium 33, an American commercial communications satellite, has been tracked extensively since its accidental collision with the defunct Russian satellite Cosmos 2251 in 2009. This event, occurring at high speed in low Earth orbit (LEO), generated thousands of pieces of space debris, significantly increasing the risk of further collisions. The Iridium 33 debris cloud has impacted space traffic management and orbital debris mitigation strategies, making it a subject of ongoing study in space situational awareness.

Loading next visibility...
Identifier
35661, 1993-036APC
Orbit
LEO
Country
Flag of CISCIS
Related business
Manufacturer
Unknown
Mission
Spacecraft
Bus & Motor
Unknown
Mass
Unknown
Launch date (UTC)
1993-06-16 (33 years ago)
Launch vehicle
Unknown
Launch site
Plesetsk Missile And Space Complex (PKMTR)
Object type
Payload
Rocket body
Debris
Shape & HBR
Unknown shape, 0.1 m
Radar Cross Section
Small (<0.1 m²)

Expand to show TLE details & history
Last TLE update: 2 days ago

TLE from 2 days ago
0 COSMOS 2251 DEB
1 35661U 93036APC 26173.96228752  .00004837  00000-0  48354-3 0  9991
2 35661  74.0122  55.7052 0084450 110.5210 250.5060 14.89080704907278
Epoch: 2026-06-22T23:05Z
TLE epoch observation values (Epoch: 2026-06-22T23:05:41.641Z)
Latitude
-0.00002°
Longitude
158.14101°
Altitude
623.593 km
Speed
7.536 km/s
True Right ascension
03h 42m 49s
True Declination
0° 00' 00"
Sunlit
Object was in daylight at epoch
Visualization orbit readout
Latitude
Unknown
Longitude
Unknown
Altitude
Unknown
Speed
Unknown
Apparent Right ascension
Unknown
Apparent Declination
Unknown
Sunlit
N/A
Visualization observer readout
Local Sidereal Time
03:15:24
Azimuth
Unknown
Elevation
Unknown
Doppler factor
Unknown
Orbital elements
Apogee altitude
657.291 km
Perigee altitude
539.457 km
Semi-major axis
6,976.511 km
Eccentricity
0.00845
Inclination
74.0122°
RAAN
55.7052°
Arg. of periapsis
110.521°
True anomaly
249.59699°
Mean anomaly
250.506°
Eccentric anomaly
250.05117°
Mean motion
3.72465 °/min
Orbital period
96.65 mins
BSTAR
0.00048354
Loading maneuver chart data...
Computing Atmospheric mass density...

Documentation

Showing up to 5 results
|